| time (UTC) | temp F | wind direction | speed MPH | gust MPH | rain 1hr in | rain 24hr in | rain mn in | humidity % | barometer mb |
| 20260505211601 | 85 | 209 | 10.0 | 21.0 | 0.00 | 0.00 | 0.00 | 75 | 1007.2 |
| 20260505211055 | 85 | 196 | 12.0 | 18.0 | 0.00 | 0.00 | 0.00 | 75 | 1007.4 |
| 20260505210552 | 85 | 212 | 9.0 | 20.0 | 0.00 | 0.00 | 0.00 | 75 | 1007.4 |
| 20260505210054 | 85 | 173 | 11.0 | 20.0 | 0.00 | 0.00 | 0.00 | 76 | 1007.4 |
| 20260505205556 | 85 | 188 | 8.0 | 19.0 | 0.00 | 0.00 | 0.00 | 75 | 1007.5 |
| 20260505205053 | 85 | 189 | 8.0 | 19.0 | 0.00 | 0.00 | 0.00 | 74 | 1007.7 |
| 20260505204600 | 85 | 150 | 11.0 | 19.0 | 0.00 | 0.00 | 0.00 | 74 | 1007.7 |
| 20260505204052 | 85 | 176 | 8.0 | 17.0 | 0.00 | 0.00 | 0.00 | 74 | 1007.9 |
| 20260505203553 | 86 | 188 | 8.0 | 23.0 | 0.00 | 0.00 | 0.00 | 74 | 1008.0 |
| 20260505203058 | 86 | 209 | 8.0 | 23.0 | 0.00 | 0.00 | 0.00 | 75 | 1008.0 |
| 20260505202551 | 86 | 178 | 8.0 | 19.0 | 0.00 | 0.00 | 0.00 | 74 | 1008.1 |
| 20260505202053 | 86 | 192 | 9.0 | 19.0 | 0.00 | 0.00 | 0.00 | 75 | 1008.1 |
| 20260505201557 | 85 | 223 | 10.0 | 17.0 | 0.00 | 0.00 | 0.00 | 75 | 1008.1 |
| 20260505201052 | 85 | 204 | 7.0 | 18.0 | 0.00 | 0.00 | 0.00 | 75 | 1008.2 |
| 20260505200552 | 85 | 162 | 9.0 | 18.0 | 0.00 | 0.00 | 0.00 | 75 | 1008.2 |
| 20260505200054 | 85 | 182 | 9.0 | 17.0 | 0.00 | 0.00 | 0.00 | 76 | 1008.2 |
| 20260505195554 | 84 | 188 | 7.0 | 14.0 | 0.00 | 0.00 | 0.00 | 76 | 1008.3 |
| 20260505195053 | 84 | 168 | 7.0 | 17.0 | 0.00 | 0.00 | 0.00 | 76 | 1008.5 |
| 20260505194556 | 84 | 194 | 7.0 | 17.0 | 0.00 | 0.00 | 0.00 | 76 | 1008.5 |
| 20260505194053 | 84 | 215 | 9.0 | 16.0 | 0.00 | 0.00 | 0.00 | 75 | 1008.7 |
| 20260505193552 | 85 | 211 | 6.0 | 16.0 | 0.00 | 0.00 | 0.00 | 76 | 1008.6 |
| 20260505193058 | 85 | 199 | 8.0 | 18.0 | 0.00 | 0.00 | 0.00 | 76 | 1008.6 |
| 20260505192553 | 84 | 204 | 9.0 | 18.0 | 0.00 | 0.00 | 0.00 | 77 | 1008.7 |
| 20260505192052 | 84 | 219 | 9.0 | 17.0 | 0.00 | 0.00 | 0.00 | 77 | 1008.9 |
| 20260505191559 | 84 | 191 | 9.0 | 17.0 | 0.00 | 0.00 | 0.00 | 77 | 1008.8 |
| 20260505191052 | 84 | 208 | 11.0 | 16.0 | 0.00 | 0.00 | 0.00 | 77 | 1008.9 |
| 20260505190552 | 84 | 168 | 10.0 | 16.0 | 0.00 | 0.00 | 0.00 | 76 | 1009.0 |
| 20260505190057 | 84 | 198 | 8.0 | 17.0 | 0.00 | 0.00 | 0.00 | 77 | 1009.0 |
| 20260505185552 | 84 | 194 | 8.0 | 17.0 | 0.00 | 0.00 | 0.00 | 77 | 1008.9 |
| 20260505185052 | 84 | 206 | 9.0 | 16.0 | 0.00 | 0.00 | 0.00 | 77 | 1008.9 |
| 20260505184602 | 84 | 219 | 11.0 | 16.0 | 0.00 | 0.00 | 0.00 | 76 | 1009.0 |
| 20260505184054 | 83 | 203 | 8.0 | 17.0 | 0.00 | 0.00 | 0.00 | 78 | 1009.0 |
| 20260505183552 | 83 | 206 | 11.0 | 17.0 | 0.00 | 0.00 | 0.00 | 79 | 1009.1 |
| 20260505183059 | 82 | 212 | 9.0 | 15.0 | 0.00 | 0.00 | 0.00 | 79 | 1009.1 |
| 20260505182552 | 82 | 211 | 8.0 | 14.0 | 0.00 | 0.00 | 0.00 | 80 | 1009.1 |
| 20260505182056 | 82 | 227 | 8.0 | 15.0 | 0.00 | 0.00 | 0.00 | 80 | 1009.2 |
| 20260505181559 | 82 | 204 | 6.0 | 15.0 | 0.00 | 0.00 | 0.00 | 81 | 1009.3 |
| 20260505181056 | 82 | 213 | 12.0 | 16.0 | 0.00 | 0.00 | 0.00 | 80 | 1009.2 |
| 20260505180555 | 82 | 207 | 9.0 | 16.0 | 0.00 | 0.00 | 0.00 | 80 | 1009.2 |
| 20260505175552 | 82 | 200 | 8.0 | 13.0 | 0.00 | 0.00 | 0.00 | 80 | 1009.4 |
| 20260505175056 | 81 | 221 | 8.0 | 13.0 | 0.00 | 0.00 | 0.00 | 81 | 1009.3 |
| 20260505174610 | 82 | 159 | 5.0 | 15.0 | 0.00 | 0.00 | 0.00 | 81 | 1009.3 |
| 20260505174053 | 82 | 202 | 8.0 | 16.0 | 0.00 | 0.00 | 0.00 | 80 | 1009.5 |
| 20260505173553 | 82 | 208 | 10.0 | 16.0 | 0.00 | 0.00 | 0.00 | 81 | 1009.5 |
| 20260505173100 | 81 | 212 | 10.0 | 18.0 | 0.00 | 0.00 | 0.00 | 80 | 1009.6 |
| 20260505172554 | 81 | 207 | 11.0 | 18.0 | 0.00 | 0.00 | 0.00 | 80 | 1009.6 |
| 20260505172052 | 81 | 217 | 12.0 | 18.0 | 0.00 | 0.00 | 0.00 | 81 | 1009.6 |
| 20260505171555 | 81 | 174 | 10.0 | 17.0 | 0.00 | 0.00 | 0.00 | 81 | 1009.6 |
| 20260505171052 | 81 | 196 | 7.0 | 19.0 | 0.00 | 0.00 | 0.00 | 82 | 1009.6 |
| 20260505170551 | 81 | 211 | 10.0 | 19.0 | 0.00 | 0.00 | 0.00 | 82 | 1009.6 |
| 20260505170136 | 80 | 211 | 12.0 | 18.0 | 0.00 | 0.00 | 0.00 | 82 | 1009.7 |
| 20260505165553 | 80 | 221 | 9.0 | 16.0 | 0.00 | 0.00 | 0.00 | 82 | 1009.7 |
| 20260505165053 | 80 | 209 | 8.0 | 17.0 | 0.00 | 0.00 | 0.00 | 82 | 1009.7 |
| 20260505164552 | 80 | 155 | 10.0 | 21.0 | 0.00 | 0.00 | 0.00 | 82 | 1009.7 |
| 20260505164055 | 80 | 210 | 11.0 | 21.0 | 0.00 | 0.00 | 0.00 | 81 | 1009.7 |
| 20260505163551 | 80 | 202 | 11.0 | 20.0 | 0.00 | 0.00 | 0.00 | 82 | 1009.6 |
| 20260505163055 | 80 | 218 | 11.0 | 20.0 | 0.00 | 0.00 | 0.00 | 82 | 1009.7 |
| 20260505162552 | 80 | 212 | 12.0 | 18.0 | 0.00 | 0.00 | 0.00 | 82 | 1009.7 |
| 20260505162051 | 80 | 222 | 11.0 | 19.0 | 0.00 | 0.00 | 0.00 | 83 | 1009.6 |
| 20260505161604 | 80 | 205 | 11.0 | 19.0 | 0.00 | 0.00 | 0.00 | 83 | 1009.7 |
| 20260505161052 | 79 | 203 | 12.0 | 19.0 | 0.00 | 0.00 | 0.00 | 83 | 1009.7 |
| 20260505160554 | 79 | 230 | 9.0 | 19.0 | 0.00 | 0.00 | 0.00 | 84 | 1009.7 |
| 20260505153100 | 77 | 223 | 10.0 | 15.0 | 0.00 | 0.00 | 0.00 | 88 | 1009.7 |
| 20260505152551 | 77 | 205 | 8.0 | 14.0 | 0.00 | 0.00 | 0.00 | 88 | 1009.7 |
| 20260505152051 | 77 | 213 | 8.0 | 12.0 | 0.00 | 0.00 | 0.00 | 89 | 1009.6 |
| 20260505151558 | 76 | 171 | 7.0 | 17.0 | 0.00 | 0.00 | 0.00 | 89 | 1009.5 |
| 20260505151052 | 76 | 220 | 7.0 | 17.0 | 0.00 | 0.00 | 0.00 | 89 | 1009.5 |
| 20260505150554 | 76 | 214 | 9.0 | 16.0 | 0.00 | 0.00 | 0.00 | 89 | 1009.5 |
| 20260505140552 | 74 | 219 | 9.0 | 14.0 | 0.00 | 0.00 | 0.00 | 91 | 1009.2 |
| 20260505124554 | 73 | 180 | 9.0 | 15.0 | 0.00 | 0.00 | 0.00 | 93 | 1009.0 |
| 20260505124052 | 73 | 202 | 8.0 | 13.0 | 0.00 | 0.00 | 0.00 | 93 | 1008.9 |
| 20260505123551 | 72 | 193 | 7.0 | 12.0 | 0.00 | 0.00 | 0.00 | 93 | 1008.9 |
| 20260505123112 | 72 | 182 | 6.0 | 10.0 | 0.00 | 0.00 | 0.00 | 93 | 1008.9 |
| 20260505122552 | 72 | 188 | 5.0 | 10.0 | 0.00 | 0.00 | 0.00 | 93 | 1008.9 |
| 20260505122052 | 72 | 193 | 5.0 | 12.0 | 0.00 | 0.00 | 0.00 | 93 | 1009.0 |
| 20260505121556 | 72 | 202 | 5.0 | 12.0 | 0.00 | 0.00 | 0.00 | 93 | 1009.0 |
| 20260505121052 | 72 | 187 | 7.0 | 12.0 | 0.00 | 0.00 | 0.00 | 93 | 1008.8 |
| 20260505120552 | 72 | 186 | 5.0 | 11.0 | 0.00 | 0.00 | 0.00 | 93 | 1008.6 |
| 20260505120055 | 72 | 200 | 6.0 | 11.0 | 0.00 | 0.00 | 0.00 | 93 | 1008.7 |
| 20260505115553 | 72 | 188 | 7.0 | 11.0 | 0.00 | 0.00 | 0.00 | 93 | 1008.6 |
| 20260505115052 | 71 | 198 | 5.0 | 11.0 | 0.00 | 0.00 | 0.00 | 93 | 1008.7 |
| 20260505114612 | 71 | 186 | 5.0 | 9.0 | 0.00 | 0.00 | 0.00 | 93 | 1008.6 |
| 20260505114052 | 71 | 207 | 5.0 | 10.0 | 0.00 | 0.00 | 0.00 | 93 | 1008.5 |
| 20260505113555 | 71 | 205 | 5.0 | 10.0 | 0.00 | 0.00 | 0.00 | 93 | 1008.3 |
| 20260505113053 | 71 | 202 | 4.0 | 8.0 | 0.00 | 0.00 | 0.00 | 93 | 1008.4 |
| 20260505112556 | 71 | 195 | 4.0 | 10.0 | 0.00 | 0.00 | 0.00 | 93 | 1008.3 |
| 20260505112052 | 71 | 193 | 5.0 | 11.0 | 0.00 | 0.00 | 0.00 | 93 | 1008.4 |
| 20260505111605 | 71 | 202 | 6.0 | 11.0 | 0.00 | 0.00 | 0.00 | 93 | 1008.3 |
| 20260505111053 | 71 | 217 | 6.0 | 10.0 | 0.00 | 0.00 | 0.00 | 93 | 1008.3 |
| 20260505110552 | 71 | 190 | 5.0 | 10.0 | 0.00 | 0.00 | 0.00 | 93 | 1008.5 |
| 20260505102052 | 71 | 198 | 4.0 | 11.0 | 0.00 | 0.00 | 0.00 | 93 | 1008.3 |
| 20260505101554 | 71 | 200 | 5.0 | 11.0 | 0.00 | 0.00 | 0.00 | 93 | 1008.6 |
| 20260505101052 | 70 | 182 | 5.0 | 10.0 | 0.00 | 0.00 | 0.00 | 93 | 1008.7 |
| 20260505100552 | 70 | 199 | 5.0 | 9.0 | 0.00 | 0.00 | 0.00 | 93 | 1008.7 |
| 20260505100055 | 70 | 177 | 4.0 | 9.0 | 0.00 | 0.00 | 0.00 | 93 | 1008.8 |
| 20260505095552 | 70 | 188 | 5.0 | 9.0 | 0.00 | 0.00 | 0.00 | 92 | 1008.6 |
| 20260505095053 | 70 | 191 | 4.0 | 10.0 | 0.00 | 0.00 | 0.00 | 92 | 1008.6 |
| 20260505094556 | 70 | 195 | 6.0 | 11.0 | 0.00 | 0.00 | 0.00 | 92 | 1008.6 |
| 20260505094054 | 70 | 189 | 5.0 | 11.0 | 0.00 | 0.00 | 0.00 | 92 | 1008.5 |
| 20260505093551 | 70 | 187 | 6.0 | 9.0 | 0.00 | 0.00 | 0.00 | 92 | 1008.6 |
| 20260505093053 | 70 | 189 | 4.0 | 8.0 | 0.00 | 0.00 | 0.00 | 92 | 1008.6 |
| 20260505092550 | 70 | 182 | 4.0 | 7.0 | 0.00 | 0.00 | 0.00 | 92 | 1008.9 |
| 20260505092051 | 70 | 194 | 4.0 | 7.0 | 0.00 | 0.00 | 0.00 | 92 | 1009.0 |
| 20260505091600 | 70 | 192 | 4.0 | 7.0 | 0.00 | 0.00 | 0.00 | 92 | 1008.9 |
| 20260505091051 | 70 | 176 | 3.0 | 6.0 | 0.00 | 0.00 | 0.00 | 92 | 1008.9 |
| 20260505090552 | 70 | 189 | 2.0 | 6.0 | 0.00 | 0.00 | 0.00 | 92 | 1008.9 |
| 20260505090059 | 70 | 190 | 2.0 | 6.0 | 0.00 | 0.00 | 0.00 | 91 | 1008.9 |
| 20260505085552 | 70 | 178 | 3.0 | 6.0 | 0.00 | 0.00 | 0.00 | 91 | 1008.8 |
| 20260505085053 | 70 | 188 | 3.0 | 6.0 | 0.00 | 0.00 | 0.00 | 91 | 1008.9 |
| 20260505084553 | 70 | 194 | 3.0 | 7.0 | 0.00 | 0.00 | 0.00 | 91 | 1009.0 |
| 20260505084052 | 70 | 193 | 4.0 | 7.0 | 0.00 | 0.00 | 0.00 | 91 | 1009.0 |
| 20260505083551 | 70 | 182 | 4.0 | 7.0 | 0.00 | 0.00 | 0.00 | 91 | 1009.1 |
| 20260505083105 | 70 | 185 | 3.0 | 7.0 | 0.00 | 0.00 | 0.00 | 91 | 1009.1 |
| 20260505082555 | 70 | 190 | 3.0 | 9.0 | 0.00 | 0.00 | 0.00 | 91 | 1009.2 |
| 20260505082054 | 70 | 195 | 4.0 | 9.0 | 0.00 | 0.00 | 0.00 | 91 | 1009.3 |
| 20260505081557 | 70 | 196 | 5.0 | 10.0 | 0.00 | 0.00 | 0.00 | 91 | 1009.3 |
| 20260505081054 | 70 | 194 | 4.0 | 10.0 | 0.00 | 0.00 | 0.00 | 91 | 1009.4 |
| 20260505080553 | 70 | 203 | 4.0 | 11.0 | 0.00 | 0.00 | 0.00 | 91 | 1009.4 |
| 20260505080054 | 70 | 190 | 5.0 | 11.0 | 0.00 | 0.00 | 0.00 | 91 | 1009.6 |
| 20260505075552 | 70 | 183 | 6.0 | 10.0 | 0.00 | 0.00 | 0.00 | 91 | 1009.5 |
| 20260505075053 | 70 | 187 | 6.0 | 10.0 | 0.00 | 0.00 | 0.00 | 90 | 1009.6 |
| 20260505074554 | 70 | 196 | 6.0 | 9.0 | 0.00 | 0.00 | 0.00 | 90 | 1009.6 |
| 20260505074052 | 70 | 202 | 5.0 | 10.0 | 0.00 | 0.00 | 0.00 | 90 | 1009.7 |
| 20260505073556 | 71 | 184 | 4.0 | 10.0 | 0.00 | 0.00 | 0.00 | 90 | 1009.8 |
| 20260505073100 | 71 | 190 | 5.0 | 10.0 | 0.00 | 0.00 | 0.00 | 90 | 1009.7 |
| 20260505072551 | 71 | 206 | 6.0 | 10.0 | 0.00 | 0.00 | 0.00 | 90 | 1009.7 |
| 20260505072052 | 71 | 209 | 6.0 | 11.0 | 0.00 | 0.00 | 0.00 | 90 | 1009.7 |
| 20260505071553 | 71 | 200 | 7.0 | 12.0 | 0.00 | 0.00 | 0.00 | 90 | 1009.9 |
| 20260505071053 | 71 | 183 | 5.0 | 12.0 | 0.00 | 0.00 | 0.00 | 90 | 1009.9 |
| 20260505070553 | 71 | 182 | 5.0 | 15.0 | 0.00 | 0.00 | 0.00 | 90 | 1010.0 |
| 20260505070055 | 71 | 168 | 6.0 | 15.0 | 0.00 | 0.00 | 0.00 | 90 | 1009.9 |
| 20260505065552 | 71 | 193 | 7.0 | 15.0 | 0.00 | 0.00 | 0.00 | 90 | 1009.9 |
| 20260505065055 | 71 | 203 | 7.0 | 14.0 | 0.00 | 0.00 | 0.00 | 90 | 1009.8 |
| 20260505064602 | 71 | 171 | 8.0 | 13.0 | 0.00 | 0.00 | 0.00 | 90 | 1009.7 |
| 20260505064052 | 71 | 185 | 8.0 | 13.0 | 0.00 | 0.00 | 0.00 | 89 | 1009.9 |
| 20260505063553 | 71 | 180 | 7.0 | 14.0 | 0.00 | 0.00 | 0.00 | 89 | 1009.9 |
| 20260505063055 | 71 | 203 | 7.0 | 14.0 | 0.00 | 0.00 | 0.00 | 89 | 1010.0 |
| 20260505062552 | 71 | 177 | 7.0 | 16.0 | 0.00 | 0.00 | 0.00 | 89 | 1010.1 |
| 20260505062054 | 70 | 194 | 8.0 | 16.0 | 0.00 | 0.00 | 0.00 | 89 | 1010.1 |
| 20260505061553 | 70 | 171 | 7.0 | 15.0 | 0.00 | 0.00 | 0.00 | 89 | 1010.1 |
| 20260505061051 | 70 | 173 | 7.0 | 15.0 | 0.00 | 0.00 | 0.00 | 89 | 1010.1 |
| 20260505060551 | 70 | 186 | 7.0 | 13.0 | 0.00 | 0.00 | 0.00 | 88 | 1010.2 |
| 20260505060104 | 70 | 214 | 5.0 | 11.0 | 0.00 | 0.00 | 0.00 | 88 | 1010.1 |
| 20260505055552 | 70 | 173 | 6.0 | 11.0 | 0.00 | 0.00 | 0.00 | 88 | 1010.0 |
| 20260505055056 | 70 | 175 | 6.0 | 11.0 | 0.00 | 0.00 | 0.00 | 88 | 1010.1 |
| 20260505054604 | 71 | 176 | 5.0 | 14.0 | 0.00 | 0.00 | 0.00 | 88 | 1010.4 |
| 20260505054052 | 71 | 202 | 6.0 | 14.0 | 0.00 | 0.00 | 0.00 | 88 | 1010.5 |
| 20260505053554 | 71 | 199 | 7.0 | 14.0 | 0.00 | 0.00 | 0.00 | 88 | 1010.5 |
| 20260505053112 | 71 | 191 | 6.0 | 13.0 | 0.00 | 0.00 | 0.00 | 87 | 1010.4 |
| 20260505052551 | 71 | 192 | 6.0 | 11.0 | 0.00 | 0.00 | 0.00 | 87 | 1010.6 |
| 20260505052051 | 71 | 185 | 5.0 | 11.0 | 0.00 | 0.00 | 0.00 | 87 | 1010.6 |
| 20260505051555 | 71 | 200 | 5.0 | 11.0 | 0.00 | 0.00 | 0.00 | 87 | 1010.6 |
| 20260505051054 | 71 | 179 | 5.0 | 12.0 | 0.00 | 0.00 | 0.00 | 87 | 1010.7 |
| 20260505050554 | 71 | 182 | 6.0 | 12.0 | 0.00 | 0.00 | 0.00 | 86 | 1010.7 |
| 20260505041614 | 72 | 216 | 6.0 | 13.0 | 0.00 | 0.00 | 0.00 | 84 | 1011.1 |
| 20260505041051 | 72 | 178 | 4.0 | 10.0 | 0.00 | 0.00 | 0.00 | 84 | 1011.1 |
| 20260505040551 | 72 | 182 | 6.0 | 12.0 | 0.00 | 0.00 | 0.00 | 84 | 1011.0 |
| 20260505040057 | 72 | 184 | 6.0 | 12.0 | 0.00 | 0.00 | 0.00 | 84 | 1011.0 |
| 20260505035554 | 72 | 158 | 5.0 | 11.0 | 0.00 | 0.00 | 0.00 | 83 | 1011.0 |
| 20260505035057 | 72 | 195 | 6.0 | 15.0 | 0.00 | 0.00 | 0.00 | 83 | 1011.1 |
| 20260505034601 | 73 | 173 | 7.0 | 15.0 | 0.00 | 0.00 | 0.00 | 83 | 1011.0 |
| 20260505034052 | 73 | 188 | 6.0 | 12.0 | 0.00 | 0.00 | 0.00 | 83 | 1011.1 |
| 20260505033552 | 73 | 185 | 6.0 | 14.0 | 0.00 | 0.00 | 0.00 | 83 | 1011.1 |
| 20260505033102 | 73 | 193 | 7.0 | 14.0 | 0.00 | 0.00 | 0.00 | 82 | 1011.0 |
| 20260505032554 | 73 | 188 | 6.0 | 12.0 | 0.00 | 0.00 | 0.00 | 82 | 1010.9 |
| 20260505032051 | 73 | 159 | 6.0 | 17.0 | 0.00 | 0.00 | 0.00 | 82 | 1011.1 |
| 20260505031607 | 73 | 193 | 6.0 | 17.0 | 0.00 | 0.00 | 0.00 | 82 | 1011.1 |
| 20260505031101 | 73 | 199 | 5.0 | 16.0 | 0.00 | 0.00 | 0.00 | 82 | 1011.1 |
| 20260505030551 | 73 | 175 | 5.0 | 16.0 | 0.00 | 0.00 | 0.00 | 82 | 1011.0 |
| 20260505030052 | 73 | 144 | 6.0 | 14.0 | 0.00 | 0.00 | 0.00 | 82 | 1011.0 |
| 20260505025554 | 73 | 202 | 6.0 | 14.0 | 0.00 | 0.00 | 0.00 | 82 | 1011.0 |
| 20260505025054 | 73 | 183 | 7.0 | 14.0 | 0.00 | 0.00 | 0.00 | 82 | 1010.9 |
| 20260505024555 | 73 | 175 | 5.0 | 14.0 | 0.00 | 0.00 | 0.00 | 82 | 1010.9 |
| 20260505024053 | 73 | 184 | 7.0 | 14.0 | 0.00 | 0.00 | 0.00 | 82 | 1010.8 |
| 20260505023552 | 73 | 159 | 5.0 | 12.0 | 0.00 | 0.00 | 0.00 | 82 | 1010.8 |
| 20260505023102 | 73 | 198 | 6.0 | 12.0 | 0.00 | 0.00 | 0.00 | 81 | 1010.7 |
| 20260505022551 | 73 | 146 | 5.0 | 13.0 | 0.00 | 0.00 | 0.00 | 81 | 1010.7 |
| 20260505022054 | 73 | 179 | 6.0 | 13.0 | 0.00 | 0.00 | 0.00 | 81 | 1010.8 |
| 20260505021557 | 73 | 180 | 6.0 | 12.0 | 0.00 | 0.00 | 0.00 | 81 | 1010.6 |
| 20260505021054 | 73 | 196 | 5.0 | 12.0 | 0.00 | 0.00 | 0.00 | 81 | 1010.7 |
| 20260505020554 | 74 | 171 | 5.0 | 14.0 | 0.00 | 0.00 | 0.00 | 81 | 1010.7 |
| 20260505020055 | 74 | 159 | 6.0 | 17.0 | 0.00 | 0.00 | 0.00 | 80 | 1010.5 |
| 20260505015557 | 74 | 208 | 8.0 | 17.0 | 0.00 | 0.00 | 0.00 | 80 | 1010.6 |
| 20260505015055 | 74 | 198 | 7.0 | 15.0 | 0.00 | 0.00 | 0.00 | 80 | 1010.4 |
| 20260505014556 | 74 | 152 | 6.0 | 17.0 | 0.00 | 0.00 | 0.00 | 79 | 1010.5 |
| 20260505014056 | 74 | 169 | 9.0 | 17.0 | 0.00 | 0.00 | 0.00 | 79 | 1010.5 |
| 20260505013553 | 75 | 166 | 7.0 | 16.0 | 0.00 | 0.00 | 0.00 | 79 | 1010.5 |
| 20260505013059 | 75 | 181 | 5.0 | 20.0 | 0.00 | 0.00 | 0.00 | 78 | 1010.5 |
| 20260505012551 | 75 | 193 | 8.0 | 20.0 | 0.00 | 0.00 | 0.00 | 78 | 1010.3 |
| 20260505012053 | 75 | 162 | 7.0 | 16.0 | 0.00 | 0.00 | 0.00 | 78 | 1010.3 |
| 20260505011556 | 75 | 164 | 8.0 | 18.0 | 0.00 | 0.00 | 0.00 | 77 | 1010.2 |
| 20260505011053 | 76 | 182 | 8.0 | 19.0 | 0.00 | 0.00 | 0.00 | 77 | 1010.1 |
| 20260505010553 | 76 | 190 | 9.0 | 19.0 | 0.00 | 0.00 | 0.00 | 77 | 1010.1 |
| 20260505010056 | 76 | 177 | 8.0 | 18.0 | 0.00 | 0.00 | 0.00 | 76 | 1010.0 |
| 20260505005553 | 76 | 227 | 8.0 | 18.0 | 0.00 | 0.00 | 0.00 | 76 | 1010.0 |
| 20260505005053 | 76 | 190 | 10.0 | 19.0 | 0.00 | 0.00 | 0.00 | 76 | 1010.2 |
| 20260505004555 | 77 | 205 | 10.0 | 19.0 | 0.00 | 0.00 | 0.00 | 75 | 1010.4 |
| 20260505004055 | 77 | 167 | 9.0 | 16.0 | 0.00 | 0.00 | 0.00 | 75 | 1010.4 |
| 20260505003553 | 77 | 173 | 8.0 | 14.0 | 0.00 | 0.00 | 0.00 | 75 | 1010.5 |
| 20260505003056 | 77 | 193 | 6.0 | 16.0 | 0.00 | 0.00 | 0.00 | 74 | 1010.4 |
| 20260505002555 | 77 | 184 | 8.0 | 16.0 | 0.00 | 0.00 | 0.00 | 74 | 1010.5 |
| 20260505002056 | 78 | 188 | 6.0 | 16.0 | 0.00 | 0.00 | 0.00 | 74 | 1010.5 |
| 20260505001557 | 78 | 194 | 7.0 | 15.0 | 0.00 | 0.00 | 0.00 | 73 | 1010.4 |
| 20260505001053 | 78 | 196 | 9.0 | 15.0 | 0.00 | 0.00 | 0.00 | 73 | 1010.3 |
| 20260505000553 | 78 | 200 | 8.0 | 18.0 | 0.00 | 0.00 | 0.00 | 73 | 1010.2 |
| 20260505000107 | 78 | 186 | 8.0 | 18.0 | 0.00 | 0.00 | 0.00 | 73 | 1010.3 |
| 20260504235554 | 78 | 191 | 8.0 | 20.0 | 0.00 | 0.00 | 0.00 | 73 | 1010.3 |
| 20260504235053 | 78 | 200 | 11.0 | 20.0 | 0.00 | 0.00 | 0.00 | 73 | 1010.4 |
| 20260504234617 | 78 | 174 | 7.0 | 18.0 | 0.00 | 0.00 | 0.00 | 73 | 1010.5 |
| 20260504234053 | 78 | 188 | 10.0 | 17.0 | 0.00 | 0.00 | 0.00 | 72 | 1010.5 |
| 20260504233553 | 78 | 186 | 9.0 | 18.0 | 0.00 | 0.00 | 0.00 | 73 | 1010.6 |
| 20260504233057 | 78 | 197 | 8.0 | 20.0 | 0.00 | 0.00 | 0.00 | 72 | 1010.5 |
| 20260504232553 | 79 | 202 | 8.0 | 20.0 | 0.00 | 0.00 | 0.00 | 72 | 1010.7 |
| 20260504232054 | 79 | 234 | 9.0 | 17.0 | 0.00 | 0.00 | 0.00 | 72 | 1010.7 |
| 20260504231601 | 79 | 182 | 8.0 | 17.0 | 0.00 | 0.00 | 0.00 | 72 | 1010.8 |
| 20260504231054 | 79 | 163 | 8.0 | 16.0 | 0.00 | 0.00 | 0.00 | 71 | 1010.8 |
| 20260504230558 | 79 | 184 | 8.0 | 16.0 | 0.00 | 0.00 | 0.00 | 70 | 1010.8 |
| 20260504230059 | 80 | 206 | 8.0 | 15.0 | 0.00 | 0.00 | 0.00 | 71 | 1010.9 |
| 20260504225555 | 80 | 199 | 7.0 | 15.0 | 0.00 | 0.00 | 0.00 | 71 | 1011.1 |
| 20260504225054 | 80 | 171 | 7.0 | 16.0 | 0.00 | 0.00 | 0.00 | 70 | 1011.1 |
| 20260504224555 | 80 | 198 | 10.0 | 16.0 | 0.00 | 0.00 | 0.00 | 69 | 1011.1 |
| 20260504224058 | 81 | 200 | 9.0 | 15.0 | 0.00 | 0.00 | 0.00 | 69 | 1011.1 |
| 20260504223555 | 81 | 194 | 7.0 | 18.0 | 0.00 | 0.00 | 0.00 | 69 | 1011.0 |
| 20260504223054 | 81 | 180 | 9.0 | 18.0 | 0.00 | 0.00 | 0.00 | 68 | 1011.0 |
| 20260504222557 | 82 | 213 | 7.0 | 16.0 | 0.00 | 0.00 | 0.00 | 68 | 1011.0 |
| 20260504222054 | 81 | 197 | 9.0 | 16.0 | 0.00 | 0.00 | 0.00 | 68 | 1011.0 |
| 20260504221600 | 81 | 211 | 8.0 | 13.0 | 0.00 | 0.00 | 0.00 | 67 | 1011.0 |
| 20260504221056 | 81 | 208 | 7.0 | 13.0 | 0.00 | 0.00 | 0.00 | 68 | 1011.0 |
| 20260504220555 | 81 | 190 | 6.0 | 19.0 | 0.00 | 0.00 | 0.00 | 68 | 1011.0 |
| 20260504220058 | 81 | 165 | 6.0 | 19.0 | 0.00 | 0.00 | 0.00 | 67 | 1011.0 |
| 20260504215555 | 82 | 130 | 9.0 | 18.0 | 0.00 | 0.00 | 0.00 | 67 | 1011.0 |
| 20260504215053 | 82 | 204 | 7.0 | 18.0 | 0.00 | 0.00 | 0.00 | 67 | 1011.1 |
| 20260504214558 | 82 | 165 | 8.0 | 17.0 | 0.00 | 0.00 | 0.00 | 67 | 1011.1 |
| 20260504214055 | 82 | 201 | 10.0 | 16.0 | 0.00 | 0.00 | 0.00 | 66 | 1011.1 |
| 20260504213554 | 82 | 201 | 9.0 | 18.0 | 0.00 | 0.00 | 0.00 | 66 | 1011.3 |
| 20260504213057 | 81 | 157 | 7.0 | 18.0 | 0.00 | 0.00 | 0.00 | 69 | 1011.3 |
| 20260504212555 | 81 | 169 | 7.0 | 18.0 | 0.00 | 0.00 | 0.00 | 68 | 1011.4 |
| 20260504212055 | 81 | 211 | 8.0 | 18.0 | 0.00 | 0.00 | 0.00 | 66 | 1011.5 |